Regional Weather Roundup
Issued by NWS

Home | Current Version | Previous Version | Graphics & Text | Print | Product List | Glossary On
Versions: 1 2 3 4 5 6 7 8 9 10 11 12 13 14 15 16 17 18 19 20 21 22 23 24 25 26 27 28 29 30 31 32 33 34 35 36 37 38 39 40 41 42 43 44 45 46 47 48 49 50
000
ASUS43 KDMX 210901
RWRIA

WEATHER ROUNDUP FOR IOWA
NATIONAL WEATHER SERVICE DES MOINES IA
300 AM CST SAT JAN 21 2017

NOTE: "FAIR" INDICATES FEW OR NO CLOUDS BELOW 12,000 FEET WITH NO
SIGNIFICANT WEATHER AND/OR OBSTRUCTIONS TO VISIBILITY.

* - THESE STATIONS ARE NOT NWS STATIONS...THUS NOT UNDER NWS
QUALITY CONTROL.  THEY ALSO DO NOT REPORT WEATHER SUCH
AS PRECIPITATION OR FOG.

IAZ001>003-012>014-020>022-031>034-043>046-211000-
   NORTHWEST IOWA

CITY           SKY/WX    TMP DP  RH WIND       PRES   REMARKS
CARROLL *      FOG       36  36 100 CALM      29.38F VSB 1
CHEROKEE *     CLOUDY    36  36 100 CALM      29.39S FOG
DENISON *      CLOUDY    37  37 100 E3        29.36F FOG
LE MARS *      FOG       37  37 100 SE7       29.38F VSB 1/2 WCI  32
ORANGE CITY *  DRIZZLE   36  36 100 SE3       29.37F
SHELDON *      MIX PCPN  36  36 100 SE7       29.37S VSB 1/4 WCI  30
SIOUX CITY     FOG       39  38  96 SE5       29.38S VSB 1/4
SPENCER        FOG       35  35 100 E5        29.39F VSB 3/4 WCI  31
STORM LAKE *   FOG       34  34 100 SE3       29.38F VSB<1/4
$$

IAZ055>058-069>071-079>083-090>094-211000-
   SOUTHWEST IOWA

CITY           SKY/WX    TMP DP  RH WIND       PRES   REMARKS
ATLANTIC *     FOG       39  39 100 CALM      29.39S VSB 1/2
AUDUBON *      FOG       37  36  93 CALM      29.39S VSB 1
CLARINDA *     FOG       43  43 100 S6        29.42S VSB<1/4
COUNCIL BLFS * FOG       41  41 100 SW5       29.38F VSB 1/4
CRESTON *      FOG       41  41 100 S7        29.40F VSB<1/4
HARLAN  *      FOG       37  37 100 CALM      29.42S VSB 1/4
LAMONI         FOG       44  44 100 SW7       29.40S VSB 1/4
RED OAK *      FOG       41  41 100 SW3       29.40S VSB<1/4
SHENANDOAH *   CLOUDY    41  41 100 SW6       29.41S FOG
$$

IAZ047>049-059>061-072>074-084-211000-
   CENTRAL IOWA

CITY           SKY/WX    TMP DP  RH WIND       PRES   REMARKS
AMES           FOG       38  38 100 SE5       29.39F VSB 1/4 WCI  34
ANKENY *       FOG       41  39  93 CALM      29.40F VSB<1/4
BOONE *        FOG       37  37 100 SE5       29.38F VSB 1/4 WCI  34
CHARITON *     FOG       45  45 100 S9        29.40S VSB 1/4
DES MOINES     FOG       41  40  96 S7        29.40F VSB 1/4
GRINNELL*      LGT RAIN  41  41  99 S10       29.42S VSB 1/2
KNOXVILLE *    FOG       45  45 100 S9        29.39F VSB 1/4
MARSHALLTOWN   FOG       40  40 100 SE9       29.40S VSB 1/4 WCI  34
NEWTON *       CLOUDY    41  41 100 S7        29.40F
PELLA *        FOG       44  44 100 S7        29.42F VSB 1/4
PERRY *        FOG       38  37  98 SE3       29.39F VSB 1/4
$$

IAZ004>006-015-016-023>025-035-036-211000-
   NORTH CENTRAL IOWA

CITY           SKY/WX    TMP DP  RH WIND       PRES   REMARKS
ALGONA *       LGT RAIN  36  36 100 E7        29.40F WCI  30
CLARION *      CLOUDY    36  36 100 E10       29.40F FOG     WCI  28
ESTHERVILLE    FOG       33  33 100 E5        29.39F VSB 1   WCI  29
FORT DODGE *   CLOUDY    36  34  93 SE3       29.39F
MASON CITY     LGT RAIN  34  34 100 NE6       29.42F VSB 3/4 WCI  29
FOREST CITY *  LGT RAIN  34  34 100 E6        29.40F WCI  29
WEBSTER CITY * CLOUDY    36 N/A N/A E7        29.37F FOG     WCI  30
IOWA FALLS *   RAIN      37  37  99 E7        29.42S WCI  31
$$

IAZ007>011-017>019-026>030-037>042-050>054-066-211000-
   NORTHEAST IOWA

CITY           SKY/WX    TMP DP  RH WIND       PRES   REMARKS
CEDAR RAPIDS   FOG       39  39 100 E8        29.43F VSB 1/4 WCI  33
CHARLES CITY * FOG       36  36 100 E10       29.43F VSB 1/4 WCI  28
CLINTON *      LGT RAIN  41  41 100 E9        29.50F VSB 1/2
DECORAH *      FOG       36  36 100 E9        29.45F VSB 1/4 WCI  29
DUBUQUE        FOG       39  39 100 E10       29.47F VSB 1/4 WCI  32
MONTICELLO *   FOG       41  41 100 E7        29.46F VSB 1/4
OELWEIN *      FOG       37  37 100 E15       29.43F VSB 1/4 WCI  28
WATERLOO       LGT RAIN  38  37  97 E8        29.42F FOG     WCI  32
$$

IAZ064-065-067-068-078-211000-
   EAST CENTRAL IOWA

CITY           SKY/WX    TMP DP  RH WIND       PRES   REMARKS
DAVENPORT      FOG       43  43 100 SE10      29.49F VSB 1/4
IOWA CITY      FOG       43  43 100 SE6       29.47S VSB 1/4
MUSCATINE *    FOG       41  41 100 CALM      29.47F VSB<1/4
QUAD CITIES    CLOUDY    47  45  93 S9        29.48F FOG
$$

IAZ062-063-075>077-085>089-095>099-211000-
   SOUTHEAST IOWA

CITY           SKY/WX    TMP DP  RH WIND       PRES   REMARKS
BURLINGTON     CLEAR     47  46  97 S10       29.47F
FAIRFIELD *    FOG       46  46 100 S12       29.43F VSB 1
FORT MADISON * CLEAR     46  45  93 S10       29.48F FOG
KEOKUK *       CLEAR     48 N/A N/A S8        29.46F
OSKALOOSA *    FOG       43  43  99 S7        29.42F VSB 1/2
OTTUMWA        CLOUDY    46  45  96 S15       29.42F FOG
WASHINGTON *   FOG       46  46 100 S13G18    29.45F VSB 1/2
$$

ABBREVIATIONS USED IN REMARKS
   TC - TEMPERATURES IN CELSIUS
  WCI - WIND CHILL INDEX
   HX - HEAT INDEX
  VSB - VISIBILITY
$$





USA.gov is the U.S. government's official web portal to all federal, state and local government web resources and services.